N1GUJ Weather Reports


Display with metric or nautical units.
time (UTC)temp
F
wind
direction
speed
MPH
gust
MPH
rain 1hr
in
rain 24hr
in
rain mn
in
humidity
%
barometer
mb
20260906014503 60 220 0.0 0.0 0.00 0.00 0.00 89 1013.8
20260906014003 60 220 0.0 0.0 0.00 0.00 0.00 89 1013.8
20260906013500 60 220 0.0 0.0 0.00 0.00 0.00 89 1013.8
20260906013000 60 220 0.0 0.0 0.00 0.00 0.00 89 1013.8
20260906012506 60 220 0.0 0.0 0.00 0.00 0.00 89 1013.7
20260906012001 60 220 0.0 0.0 0.00 0.00 0.00 89 1013.6
20260906011500 60 220 0.0 0.0 0.00 0.00 0.00 89 1013.7
20260906011007 60 220 0.0 0.0 0.00 0.00 0.00 89 1013.8
20260906010503 60 220 0.0 0.0 0.00 0.00 0.00 89 1013.7
20260906010003 60 220 0.0 0.0 0.00 0.00 0.00 89 1013.7
20260906005506 60 220 0.0 0.0 0.00 0.00 0.00 89 1013.5
20260906005003 61 220 0.0 0.0 0.00 0.00 0.00 89 1013.5
20260906004509 61 220 0.0 0.0 0.00 0.00 0.00 89 1013.4
20260906004003 61 220 0.0 0.0 0.00 0.00 0.00 88 1013.5
20260906003503 61 220 0.0 0.0 0.00 0.00 0.00 88 1013.5
20260906003000 61 220 0.0 0.0 0.00 0.00 0.00 88 1013.5
20260906002500 61 220 0.0 0.0 0.00 0.00 0.00 88 1013.4
20260906002003 61 220 0.0 0.0 0.00 0.00 0.00 88 1013.4
20260906001500 61 220 0.0 0.0 0.00 0.00 0.00 88 1013.3
20260906001000 61 220 0.0 0.0 0.00 0.00 0.00 88 1013.4
20260906000503 61 220 0.0 0.0 0.00 0.00 0.00 88 1013.4
20260906000000 61 220 0.0 0.0 0.00 0.00 0.00 88 1013.4
20260905235506 61 220 0.0 0.0 0.00 0.00 0.00 88 1013.2
20260905235000 61 220 0.0 0.0 0.00 0.00 0.00 88 1013.2
20260905234500 61 220 0.0 0.0 0.00 0.00 0.00 87 1013.2
20260905234006 61 220 0.0 0.0 0.00 0.00 0.00 87 1013.2
20260905233500 61 220 0.0 0.0 0.00 0.00 0.00 87 1013.1
20260905233000 61 220 0.0 0.0 0.00 0.00 0.00 87 1013.1
20260905232506 61 220 0.0 0.0 0.00 0.00 0.00 87 1013.0
20260905232002 62 220 0.0 0.0 0.00 0.00 0.00 87 1012.9
20260905231505 62 220 0.0 0.0 0.00 0.00 0.00 87 1012.9
20260905230959 62 220 0.0 0.0 0.00 0.00 0.00 86 1012.8
20260905230459 62 220 0.0 0.0 0.00 0.00 0.00 86 1012.9
20260905225959 62 220 0.0 0.0 0.00 0.00 0.00 86 1012.9
20260905225506 62 220 0.0 1.0 0.00 0.00 0.00 85 1013.0
20260905224959 62 220 0.0 1.0 0.00 0.00 0.00 85 1013.0
20260905224502 62 220 0.0 0.0 0.00 0.00 0.00 85 1012.9
20260905223959 62 220 0.0 1.0 0.00 0.00 0.00 84 1012.9
20260905223459 62 220 0.0 0.0 0.00 0.00 0.00 84 1012.8
20260905222959 63 220 0.0 2.0 0.00 0.00 0.00 83 1012.7
20260905222502 63 220 0.0 1.0 0.00 0.00 0.00 82 1012.7
20260905222002 63 220 0.0 1.0 0.00 0.00 0.00 83 1012.7
20260905221502 64 220 0.0 3.0 0.00 0.00 0.00 83 1012.7
20260905221002 64 220 1.0 2.0 0.00 0.00 0.00 86 1012.6
20260905220505 64 220 0.0 0.0 0.00 0.00 0.00 86 1012.5
20260905215959 64 220 0.0 0.0 0.00 0.00 0.00 86 1012.5
20260905215459 64 219 0.0 0.0 0.00 0.00 0.00 86 1012.4
20260905215000 64 219 0.0 0.0 0.00 0.00 0.00 85 1012.4
20260905214500 64 220 0.0 0.0 0.00 0.00 0.00 84 1012.2
20260905214008 65 220 0.0 0.0 0.00 0.00 0.00 84 1012.1
20260905213500 65 219 0.0 0.0 0.00 0.00 0.00 83 1012.1
20260905212959 65 219 0.0 0.0 0.00 0.00 0.00 83 1012.1
20260905212506 65 219 0.0 0.0 0.00 0.00 0.00 82 1012.2
20260905212002 65 220 0.0 0.0 0.00 0.00 0.00 83 1012.1
20260905211503 66 220 0.0 1.0 0.00 0.00 0.00 82 1012.0
20260905211008 66 220 0.0 0.0 0.00 0.00 0.00 82 1011.9
20260905210459 66 220 0.0 0.0 0.00 0.00 0.00 81 1011.9
20260905210005 66 220 0.0 1.0 0.00 0.00 0.00 79 1011.9
20260905205502 67 153 0.0 1.0 0.00 0.00 0.00 77 1011.8
20260905205002 67 153 0.0 1.0 0.00 0.00 0.00 76 1011.8
20260905204459 68 153 0.0 1.0 0.00 0.00 0.00 76 1011.8
20260905204002 68 153 0.0 1.0 0.00 0.00 0.00 77 1011.7
20260905203459 68 153 0.0 2.0 0.00 0.00 0.00 78 1011.7
20260905203005 68 153 0.0 1.0 0.00 0.00 0.00 75 1011.7
20260905202505 67 156 1.0 1.0 0.00 0.00 0.00 75 1011.7
20260905201959 67 156 0.0 3.0 0.00 0.00 0.00 76 1011.7
20260905201459 67 205 0.0 2.0 0.00 0.00 0.00 75 1011.7
20260905201002 67 205 0.0 3.0 0.00 0.00 0.00 76 1011.6
20260905200459 67 148 0.0 2.0 0.00 0.00 0.00 76 1011.6
20260905200002 68 121 2.0 3.0 0.00 0.00 0.00 76 1011.6
20260905195459 67 155 2.0 6.0 0.00 0.00 0.00 78 1011.7
20260905195002 67 205 1.0 3.0 0.00 0.00 0.00 77 1011.7
20260905194505 67 122 1.0 2.0 0.00 0.00 0.00 79 1011.8
20260905193959 66 105 0.0 6.0 0.00 0.00 0.00 80 1011.6
20260905193501 66 195 2.0 2.0 0.00 0.00 0.00 80 1011.7
20260905193002 66 195 0.0 1.0 0.00 0.00 0.00 81 1011.7
20260905192459 66 195 0.0 2.0 0.00 0.00 0.00 80 1011.6
20260905191959 66 195 1.0 4.0 0.00 0.00 0.00 81 1011.7
20260905191505 66 195 0.0 1.0 0.00 0.00 0.00 80 1011.7
20260905190958 66 110 0.0 1.0 0.00 0.00 0.00 80 1011.7
20260905190459 66 110 0.0 1.0 0.00 0.00 0.00 80 1011.7
20260905185959 66 110 0.0 3.0 0.00 0.00 0.00 80 1011.7
20260905185459 66 171 0.0 1.0 0.00 0.00 0.00 82 1011.7
20260905185005 66 171 0.0 4.0 0.00 0.00 0.00 82 1011.8
20260905184458 66 185 0.0 1.0 0.00 0.00 0.00 81 1011.8
20260905184004 66 185 0.0 2.0 0.00 0.00 0.00 81 1011.8
20260905183507 66 185 0.0 1.0 0.00 0.00 0.00 81 1011.8
20260905183001 66 185 0.0 2.0 0.00 0.00 0.00 80 1011.9
20260905182504 66 192 0.0 2.0 0.00 0.00 0.00 79 1011.9
20260905182001 66 192 0.0 2.0 0.00 0.00 0.00 79 1011.9
20260905181458 66 192 0.0 2.0 0.00 0.00 0.00 80 1011.9
20260905180958 65 192 0.0 2.0 0.00 0.00 0.00 82 1011.9
20260905180501 65 178 0.0 3.0 0.00 0.00 0.00 85 1011.9
20260905180001 65 217 1.0 4.0 0.00 0.00 0.00 85 1011.9
20260905175504 64 144 0.0 2.0 0.00 0.00 0.00 84 1011.9
20260905174958 64 222 0.0 3.0 0.00 0.00 0.00 83 1012.0
20260905174504 64 170 0.0 1.0 0.00 0.00 0.00 84 1012.0
20260905174001 64 170 0.0 1.0 0.00 0.00 0.00 83 1012.0
20260905173501 65 170 1.0 2.0 0.00 0.00 0.00 82 1012.0
20260905173001 65 171 0.0 1.0 0.00 0.00 0.00 81 1012.0
20260905172458 65 171 1.0 2.0 0.00 0.00 0.00 81 1011.9
20260905171958 65 214 0.0 2.0 0.00 0.00 0.00 81 1011.9
20260905171501 65 214 0.0 1.0 0.00 0.00 0.00 80 1011.9
20260905170958 66 214 0.0 2.0 0.00 0.00 0.00 80 1011.9
20260905170504 66 214 3.0 3.0 0.00 0.00 0.00 78 1011.8
20260905170001 66 220 0.0 1.0 0.00 0.00 0.00 78 1011.8
20260905165504 67 220 0.0 1.0 0.00 0.00 0.00 78 1011.8
20260905165001 67 220 0.0 1.0 0.00 0.00 0.00 76 1011.8
20260905164501 67 220 0.0 4.0 0.00 0.00 0.00 77 1011.9
20260905163958 67 229 0.0 1.0 0.00 0.00 0.00 78 1011.9
20260905163501 66 230 0.0 2.0 0.00 0.00 0.00 76 1011.8
20260905163001 66 231 3.0 3.0 0.00 0.00 0.00 74 1011.8
20260905162458 67 196 0.0 2.0 0.00 0.00 0.00 73 1011.8
20260905161958 67 130 0.0 3.0 0.00 0.00 0.00 73 1011.9
20260905161504 67 226 0.0 1.0 0.00 0.00 0.00 76 1011.8
20260905161001 66 226 0.0 0.0 0.00 0.00 0.00 76 1011.8
20260905160501 66 226 0.0 4.0 0.00 0.00 0.00 77 1011.9
20260905160001 66 230 1.0 2.0 0.00 0.00 0.00 78 1011.9
20260905155458 66 235 2.0 5.0 0.00 0.00 0.00 76 1012.0
20260905154958 66 226 0.0 2.0 0.00 0.00 0.00 77 1011.9
20260905154500 66 224 0.0 4.0 0.00 0.00 0.00 76 1011.8
20260905153958 66 168 1.0 2.0 0.00 0.00 0.00 78 1011.9
20260905153500 66 168 0.0 3.0 0.00 0.00 0.00 79 1011.8
20260905152958 66 166 0.0 2.0 0.00 0.00 0.00 79 1011.9
20260905152458 65 168 0.0 2.0 0.00 0.00 0.00 81 1011.9
20260905151958 65 176 0.0 1.0 0.00 0.00 0.00 80 1011.8
20260905151458 65 176 0.0 4.0 0.00 0.00 0.00 82 1011.9
20260905151001 65 112 0.0 1.0 0.00 0.00 0.00 81 1011.8
20260905150457 65 111 0.0 5.0 0.00 0.00 0.00 79 1011.8
20260905150004 66 122 0.0 6.0 0.00 0.00 0.00 80 1011.8
20260905145500 66 134 0.0 1.0 0.00 0.00 0.00 81 1011.7
20260905145001 66 134 0.0 2.0 0.00 0.00 0.00 81 1011.7
20260905144457 66 135 0.0 5.0 0.00 0.00 0.00 80 1011.7
20260905143958 66 169 0.0 3.0 0.00 0.00 0.00 81 1011.7
20260905143457 65 169 0.0 1.0 0.00 0.00 0.00 82 1011.7
20260905143000 65 169 0.0 2.0 0.00 0.00 0.00 81 1011.7
20260905142457 65 169 0.0 3.0 0.00 0.00 0.00 84 1011.6
20260905142000 64 169 0.0 3.0 0.00 0.00 0.00 83 1011.6
20260905141500 64 169 2.0 2.0 0.00 0.00 0.00 83 1011.6
20260905140957 64 169 0.0 3.0 0.00 0.00 0.00 83 1011.6
20260905140457 64 169 0.0 1.0 0.00 0.00 0.00 84 1011.6
20260905135957 63 169 0.0 3.0 0.00 0.00 0.00 84 1011.7
20260905135458 63 169 0.0 1.0 0.00 0.00 0.00 86 1011.6
20260905135006 63 169 0.0 3.0 0.00 0.00 0.00 86 1011.6
20260905134503 62 169 0.0 1.0 0.00 0.00 0.00 88 1011.6
20260905133958 62 169 0.0 1.0 0.00 0.00 0.00 87 1011.6
20260905133457 62 169 0.0 3.0 0.00 0.00 0.00 88 1011.5
20260905133000 62 169 0.0 2.0 0.00 0.00 0.00 89 1011.6
20260905132500 62 169 0.0 0.0 0.00 0.00 0.00 90 1011.5
20260905132000 62 169 0.0 0.0 0.00 0.00 0.00 90 1011.5
20260905131457 61 169 0.0 0.0 0.00 0.00 0.00 90 1011.4
20260905131000 61 169 0.0 2.0 0.00 0.00 0.00 90 1011.3
20260905130457 61 169 0.0 1.0 0.00 0.00 0.00 90 1011.4
20260905125957 61 169 0.0 0.0 0.00 0.00 0.00 90 1011.3
20260905125506 61 169 0.0 0.0 0.00 0.00 0.00 90 1011.2
20260905125000 61 169 0.0 1.0 0.00 0.00 0.00 91 1011.3
20260905124500 61 169 0.0 1.0 0.00 0.00 0.00 91 1011.3
20260905124000 61 169 0.0 1.0 0.00 0.00 0.00 91 1011.2
20260905123457 61 169 0.0 1.0 0.00 0.00 0.00 91 1011.1
20260905123006 61 169 0.0 1.0 0.00 0.00 0.00 91 1011.1
20260905122457 61 169 0.0 2.0 0.00 0.00 0.00 91 1011.1
20260905122000 61 169 0.0 1.0 0.00 0.00 0.00 91 1011.1
20260905121503 60 169 0.0 0.0 0.00 0.00 0.00 91 1011.1
20260905121000 60 169 0.0 1.0 0.00 0.00 0.00 91 1011.0
20260905120457 60 169 0.0 0.0 0.00 0.00 0.00 91 1011.0
20260905120003 60 169 0.0 1.0 0.00 0.00 0.00 91 1011.0
20260905115503 60 169 0.0 2.0 0.00 0.00 0.00 91 1011.0
20260905114957 60 169 0.0 1.0 0.00 0.00 0.00 91 1010.9
20260905114503 60 169 0.0 3.0 0.00 0.00 0.00 91 1010.9
20260905114003 60 168 0.0 1.0 0.00 0.00 0.00 91 1010.9
20260905113502 60 168 0.0 2.0 0.00 0.00 0.00 91 1010.8
20260905113003 60 169 0.0 2.0 0.00 0.00 0.00 91 1010.7
20260905112506 60 145 0.0 1.0 0.00 0.00 0.00 91 1010.7
20260905111957 60 145 0.0 3.0 0.00 0.00 0.00 91 1010.7
20260905111456 60 147 0.0 0.0 0.00 0.00 0.00 91 1010.7
20260905110959 60 147 0.0 0.0 0.00 0.00 0.00 91 1010.6
20260905110456 60 126 0.0 1.0 0.00 0.00 0.00 91 1010.6
20260905105956 60 120 0.0 0.0 0.00 0.00 0.00 91 1010.6
20260905105456 60 120 0.0 0.0 0.00 0.00 0.00 91 1010.5
20260905104956 60 120 0.0 0.0 0.00 0.00 0.00 91 1010.4
20260905104502 60 120 0.0 0.0 0.00 0.00 0.00 91 1010.5
20260905103956 60 120 0.0 0.0 0.00 0.00 0.00 91 1010.5
20260905103457 60 120 0.0 0.0 0.00 0.00 0.00 91 1010.5
20260905103002 60 120 0.0 0.0 0.00 0.00 0.00 91 1010.5
20260905102459 60 120 0.0 0.0 0.00 0.00 0.00 91 1010.5
20260905101959 60 120 0.0 0.0 0.00 0.00 0.00 91 1010.4
20260905101456 60 120 0.0 0.0 0.00 0.00 0.00 91 1010.4
20260905100956 60 120 0.0 0.0 0.00 0.00 0.00 91 1010.4
20260905100456 60 120 0.0 0.0 0.00 0.00 0.00 91 1010.4
20260905100000 60 120 0.0 0.0 0.00 0.00 0.00 91 1010.4
20260905095456 60 120 0.0 0.0 0.00 0.00 0.00 91 1010.4
20260905094957 60 120 0.0 0.0 0.00 0.00 0.00 91 1010.3
20260905094456 60 120 0.0 0.0 0.00 0.00 0.00 91 1010.3
20260905093959 60 120 0.0 0.0 0.00 0.00 0.00 91 1010.3
20260905093506 60 120 0.0 0.0 0.00 0.00 0.00 91 1010.3
20260905092959 60 120 0.0 0.0 0.00 0.00 0.00 91 1010.3
20260905092459 60 120 0.0 0.0 0.00 0.00 0.00 91 1010.3
20260905091959 60 120 0.0 0.0 0.00 0.00 0.00 91 1010.3
20260905091456 60 120 0.0 0.0 0.00 0.00 0.00 91 1010.3
20260905090956 60 120 0.0 0.0 0.00 0.00 0.00 92 1010.2
20260905090503 60 120 0.0 0.0 0.00 0.00 0.00 91 1010.2
20260905085959 60 120 0.0 0.0 0.00 0.00 0.00 91 1010.1
20260905085456 60 120 0.0 0.0 0.00 0.00 0.00 91 1010.1
20260905084956 60 120 0.0 0.0 0.00 0.00 0.00 91 1010.1
20260905084456 60 120 0.0 0.0 0.00 0.00 0.00 91 1010.0
20260905083956 59 120 0.0 0.0 0.00 0.00 0.00 91 1010.0
20260905083459 59 120 0.0 0.0 0.00 0.00 0.00 91 1010.0
20260905082956 59 120 0.0 0.0 0.00 0.00 0.00 91 1010.0
20260905082459 59 120 0.0 0.0 0.00 0.00 0.00 91 1010.0
20260905082002 59 120 0.0 0.0 0.00 0.00 0.00 91 1010.0
20260905081456 59 120 0.0 0.0 0.00 0.00 0.00 91 1010.0
20260905080956 59 120 0.0 0.0 0.00 0.00 0.00 91 1010.0
20260905080502 59 120 0.0 0.0 0.00 0.00 0.00 91 1010.1
20260905075959 59 120 0.0 0.0 0.00 0.00 0.00 91 1010.0
20260905075456 59 120 0.0 0.0 0.00 0.00 0.00 91 1010.1
20260905074959 59 120 0.0 0.0 0.00 0.00 0.00 91 1010.1
20260905074456 59 120 0.0 0.0 0.00 0.00 0.00 91 1010.1
20260905073956 59 120 0.0 0.0 0.00 0.00 0.00 91 1010.0
20260905073458 59 120 0.0 0.0 0.00 0.00 0.00 91 1010.0
20260905072956 59 120 0.0 0.0 0.00 0.00 0.00 91 1010.1
20260905072459 59 120 0.0 0.0 0.00 0.00 0.00 91 1010.1
20260905071959 59 121 0.0 0.0 0.00 0.00 0.00 91 1010.1
20260905071459 59 121 0.0 0.0 0.00 0.00 0.00 91 1010.2
20260905070959 59 121 0.0 0.0 0.00 0.00 0.00 91 1010.3
20260905070458 59 121 0.0 0.0 0.00 0.00 0.00 91 1010.3
20260905070001 59 121 0.0 0.0 0.00 0.00 0.00 90 1010.4
20260905065458 59 121 0.0 0.0 0.00 0.00 0.00 90 1010.3
20260905064955 59 121 0.0 0.0 0.00 0.00 0.00 90 1010.3
20260905064501 59 121 0.0 0.0 0.00 0.00 0.00 90 1010.3
20260905063958 59 121 0.0 0.0 0.00 0.00 0.00 90 1010.3
20260905063455 60 121 0.0 0.0 0.00 0.00 0.00 90 1010.3
20260905062955 60 121 0.0 0.0 0.00 0.00 0.00 90 1010.3
20260905062504 60 121 0.0 0.0 0.00 0.00 0.00 90 1010.4
20260905061958 60 121 0.0 0.0 0.00 0.00 0.00 90 1010.3
20260905061455 60 121 0.0 0.0 0.00 0.00 0.00 89 1010.3
20260905060956 60 121 0.0 0.0 0.00 0.00 0.00 89 1010.3
20260905060501 60 121 0.0 0.0 0.00 0.00 0.00 89 1010.3
20260905060004 60 121 0.0 0.0 0.00 0.00 0.00 89 1010.3
20260905055455 61 121 0.0 0.0 0.00 0.00 0.00 90 1010.2
20260905055004 61 121 0.0 0.0 0.00 0.00 0.00 90 1010.2
20260905054455 61 121 0.0 0.0 0.00 0.00 0.00 90 1010.2
20260905053955 61 121 0.0 0.0 0.00 0.00 0.00 90 1010.3
20260905053455 61 121 0.0 0.0 0.00 0.00 0.00 90 1010.4
20260905052955 61 121 0.0 0.0 0.00 0.00 0.00 90 1010.4
20260905052458 61 121 0.0 0.0 0.00 0.00 0.00 90 1010.3
20260905051955 61 121 0.0 0.0 0.00 0.00 0.00 90 1010.4
20260905051501 61 121 0.0 0.0 0.00 0.00 0.00 90 1010.4
20260905050955 60 121 0.0 0.0 0.00 0.00 0.00 90 1010.3
20260905050458 60 121 0.0 0.0 0.00 0.00 0.00 89 1010.3
20260905045958 60 121 0.0 0.0 0.00 0.00 0.00 89 1010.3
20260905045455 60 121 0.0 0.0 0.00 0.00 0.00 89 1010.4
20260905044958 60 121 0.0 0.0 0.00 0.00 0.00 89 1010.4
20260905044455 60 121 0.0 0.0 0.00 0.00 0.00 89 1010.4
20260905043955 60 121 0.0 0.0 0.00 0.00 0.00 89 1010.4
20260905043458 60 121 0.0 0.0 0.00 0.00 0.00 89 1010.4
20260905042955 60 121 0.0 0.0 0.00 0.00 0.00 89 1010.4
20260905042458 61 121 0.0 0.0 0.00 0.00 0.00 89 1010.4
20260905041958 61 121 0.0 0.0 0.00 0.00 0.00 89 1010.5
20260905041455 61 121 0.0 0.0 0.00 0.00 0.00 89 1010.5
20260905040958 61 121 0.0 0.0 0.00 0.00 0.00 89 1010.5
20260905040458 61 121 0.0 0.0 0.00 0.00 0.00 88 1010.4
20260905035958 61 121 0.0 0.0 0.00 0.00 0.00 88 1010.5
20260905035455 61 121 0.0 0.0 0.00 0.00 0.00 88 1010.4
20260905034955 61 121 0.0 0.0 0.00 0.00 0.00 87 1010.4
20260905034455 61 121 0.0 0.0 0.00 0.00 0.00 87 1010.5
20260905034001 61 121 0.0 0.0 0.00 0.00 0.00 88 1010.5
20260905033501 61 121 0.0 0.0 0.00 0.00 0.00 88 1010.5
20260905032957 61 121 0.0 0.0 0.00 0.00 0.00 88 1010.5
20260905032458 61 121 0.0 0.0 0.00 0.00 0.00 87 1010.6
20260905031958 61 121 0.0 0.0 0.00 0.00 0.00 87 1010.5
20260905031458 62 121 0.0 0.0 0.00 0.00 0.00 87 1010.6
20260905030955 62 121 0.0 0.0 0.00 0.00 0.00 87 1010.6
20260905030457 62 121 0.0 0.0 0.00 0.00 0.00 87 1010.6
20260905025958 62 121 0.0 0.0 0.00 0.00 0.00 87 1010.6
20260905025457 62 121 0.0 0.0 0.00 0.00 0.00 86 1010.6
20260905024958 62 121 0.0 0.0 0.00 0.00 0.00 87 1010.6
20260905024457 62 121 0.0 0.0 0.00 0.00 0.00 87 1010.6
20260905023954 62 121 0.0 0.0 0.00 0.00 0.00 87 1010.6
20260905023454 62 121 0.0 0.0 0.00 0.00 0.00 87 1010.7
20260905022957 63 121 0.0 0.0 0.00 0.00 0.00 86 1010.8
20260905022458 63 121 0.0 0.0 0.00 0.00 0.00 86 1010.8
20260905021954 63 121 0.0 0.0 0.00 0.00 0.00 86 1010.9
20260905021454 63 121 0.0 0.0 0.00 0.00 0.00 86 1010.9
20260905021000 63 121 0.0 0.0 0.00 0.00 0.00 86 1010.9
20260905020455 63 121 0.0 0.0 0.00 0.00 0.00 86 1010.9
20260905015954 63 121 0.0 0.0 0.00 0.00 0.00 86 1010.9
20260905015503 63 121 0.0 0.0 0.00 0.00 0.00 86 1011.0
20260905014957 63 121 0.0 0.0 0.00 0.00 0.00 86 1011.0